Date String (YYYY-MM-DD hh:mm:ss) UTC,Instrument flags,absolute air pressure of the measurement (hPa),sample flow rate (lpm),inlet stack bypass flow (lpm),air temperature of the measurement (°C),ambient temperature measured by the external sensor (°C),aerosol sample conditioner tube jacket temperature (°C),OPC LED temperature (°C),internal box temperature (°C),relative humidity of the measurement (%),span deviation,mass concentration of particles derived from Lorenz-Mie calculation of OPC scattering (μg/m³),mass concentration of particles derived from Lorenz-Mie calculation of OPC scattering (μg/m³),mass concentration of particles derived from Lorenz-Mie calculation of OPC scattering (μg/m³)
DateTimeUTC,F1_M11,P_M11,Q1_M11,Q2_M11,T1_M11,T2_M11,T3_M11,T4_M11,T5_M11,U1_M11,ZSPAN_M11,X0_M11,X2_M11,X1_M11
2023-09-15 21:00:00,SystemResetWarning,0836.8,5.00,000.00,028.3,026.8,000.0,036.6,029.9,22.9,0000.0,0008.30,0004.33,0003.85
2023-09-15 21:01:00,SystemResetWarning,0836.8,5.00,000.00,028.3,026.9,000.0,036.6,030.0,23.1,0000.0,0008.40,0004.32,0003.84
2023-09-15 21:02:00,SystemResetWarning,0836.8,5.00,000.00,028.3,027.0,000.0,036.6,030.0,23.2,0000.0,0008.10,0004.31,0003.83
2023-09-15 21:03:00,SystemResetWarning,0836.8,4.99,000.00,028.4,027.1,000.0,036.6,030.1,24.3,0000.0,0008.19,0004.31,0003.83
2023-09-15 21:04:00,SystemResetWarning,0836.8,5.00,000.00,028.4,027.2,000.0,036.6,030.1,23.4,0000.0,0008.14,0004.30,0003.82
2023-09-15 21:05:00,SystemResetWarning,0836.8,4.99,000.00,028.4,027.3,000.0,036.7,030.1,23.4,0000.0,0008.86,0004.31,0003.82
2023-09-15 21:06:00,SystemResetWarning,0836.8,5.00,000.00,028.5,027.4,000.0,036.7,030.2,23.2,0000.0,0008.72,0004.27,0003.81
2023-09-15 21:07:00,SystemResetWarning,0836.7,4.99,000.00,028.5,026.5,000.0,036.6,029.9,23.1,0000.0,0008.70,0004.26,0003.79
2023-09-15 21:08:00,SystemResetWarning,0836.6,5.01,000.00,028.3,025.0,000.0,036.6,029.5,23.2,0000.0,0008.92,0004.26,0003.78
2023-09-15 21:09:00,SystemResetWarning,0836.6,5.01,000.00,028.3,024.8,000.0,036.5,029.5,23.2,0000.0,0009.07,0004.25,0003.77
2023-09-15 21:10:00,SystemResetWarning,0836.6,5.01,000.00,028.2,024.9,000.0,036.6,029.4,23.7,0000.0,0008.73,0004.23,0003.76
2023-09-15 21:11:00,SystemResetWarning,0836.6,5.00,000.00,028.1,025.2,000.0,036.5,029.5,23.6,0000.0,0008.71,0004.22,0003.74
2023-09-15 21:12:00,SystemResetWarning,0836.6,5.00,000.00,028.1,025.6,000.0,036.5,029.6,23.7,0000.0,0008.63,0004.21,0003.73
2023-09-15 21:13:00,SystemResetWarning,0836.6,5.00,000.00,028.1,025.8,000.0,036.5,029.6,24.0,0000.2,0008.58,0004.19,0003.72
2023-09-15 21:14:00,SystemResetWarning,0836.6,5.01,000.00,028.1,026.1,000.0,036.5,029.7,24.0,0001.2,0008.53,0004.17,0003.70
2023-09-15 21:15:00,SystemResetWarning,0836.6,5.00,000.00,028.1,026.3,000.0,036.5,029.8,23.9,0000.0,0008.57,0004.17,0003.68
2023-09-15 21:16:00,SystemResetWarning,0836.6,4.99,000.00,028.2,026.5,000.0,036.5,029.8,23.6,0000.0,0008.21,0004.17,0003.68
2023-09-15 21:17:00,SystemResetWarning,0836.6,4.99,000.00,028.2,026.7,000.0,036.5,029.8,24.7,0000.0,0007.93,0004.16,0003.66
2023-09-15 21:18:00,SystemResetWarning,0836.6,5.00,000.00,028.2,026.8,000.0,036.5,029.9,24.1,0000.0,0007.89,0004.15,0003.65
2023-09-15 21:19:00,SystemResetWarning,0836.6,4.99,000.00,028.2,026.9,000.0,036.5,029.9,23.8,0000.0,0007.77,0004.15,0003.64
2023-09-15 21:20:00,SystemResetWarning,0836.6,5.00,000.00,028.3,027.0,000.0,036.5,030.0,24.1,0000.0,0007.37,0004.13,0003.63
2023-09-15 21:21:00,SystemResetWarning,0836.6,5.00,000.00,028.3,027.1,000.0,036.5,030.0,23.5,0000.0,0007.41,0004.10,0003.62
2023-09-15 21:22:00,SystemResetWarning,0836.6,5.01,000.00,028.3,027.1,000.0,036.5,030.1,23.4,0000.0,0007.41,0004.09,0003.62
2023-09-15 21:23:00,SystemResetWarning,0836.6,5.01,000.00,028.4,027.2,000.0,036.6,030.1,23.5,0000.0,0007.36,0004.09,0003.62
2023-09-15 21:24:00,SystemResetWarning,0836.6,5.01,000.00,028.4,027.2,000.0,036.6,030.1,23.5,0000.0,0007.35,0004.11,0003.63
2023-09-15 21:25:00,SystemResetWarning,0836.6,4.99,000.00,028.4,027.3,000.0,036.6,030.2,23.2,0000.0,0007.49,0004.11,0003.63
2023-09-15 21:26:00,SystemResetWarning,0836.6,4.98,000.00,028.5,027.3,000.0,036.6,030.2,23.5,0000.0,0007.56,0004.12,0003.64
2023-09-15 21:27:00,SystemResetWarning,0836.6,5.00,000.00,028.4,026.0,000.0,036.6,029.7,23.1,0000.0,0007.49,0004.11,0003.64
2023-09-15 21:28:00,SystemResetWarning,0836.6,5.01,000.00,028.3,024.8,000.0,036.6,029.5,23.7,0000.0,0007.58,0004.15,0003.67
2023-09-15 21:29:00,SystemResetWarning,0836.6,5.01,000.00,028.2,024.8,000.0,036.5,029.4,23.2,0000.0,0007.60,0004.16,0003.69
2023-09-15 21:30:00,SystemResetWarning,0836.5,5.00,000.00,028.1,025.0,000.0,036.5,029.4,23.6,0000.0,0007.62,0004.17,0003.71
2023-09-15 21:31:00,SystemResetWarning,0836.5,5.00,000.00,028.1,025.3,000.0,036.5,029.4,23.7,0000.0,0008.38,0004.19,0003.72
2023-09-15 21:32:00,SystemResetWarning,0836.5,4.99,000.00,028.1,025.6,000.0,036.5,029.6,24.2,0000.0,0008.69,0004.25,0003.75
2023-09-15 21:33:00,SystemResetWarning,0836.5,5.00,000.00,028.1,025.9,000.0,036.5,029.6,25.0,0000.0,0008.72,0004.26,0003.76
2023-09-15 21:34:00,SystemResetWarning,0836.5,5.00,000.00,028.1,026.2,000.0,036.5,029.7,25.1,0000.0,0008.75,0004.25,0003.76
2023-09-15 21:35:00,SystemResetWarning,0836.5,5.01,000.00,028.1,026.4,000.0,036.5,029.8,24.6,0000.0,0009.14,0004.26,0003.77
2023-09-15 21:36:00,SystemResetWarning,0836.5,4.99,000.00,028.2,026.6,000.0,036.5,029.8,23.9,0000.0,0008.97,0004.29,0003.78
2023-09-15 21:37:00,SystemResetWarning,0836.5,4.99,000.00,028.2,026.7,000.0,036.5,029.9,24.0,0000.0,0008.89,0004.29,0003.79
2023-09-15 21:38:00,SystemResetWarning,0836.5,4.99,000.00,028.2,026.9,000.0,036.5,029.9,23.9,0000.0,0008.90,0004.29,0003.79
2023-09-15 21:39:00,SystemResetWarning,0836.5,5.00,000.00,028.2,027.0,000.0,036.5,030.0,24.0,0000.0,0009.24,0004.25,0003.78
2023-09-15 21:40:00,SystemResetWarning,0836.5,5.01,000.00,028.3,027.0,000.0,036.5,030.0,23.8,0000.0,0009.33,0004.23,0003.76
2023-09-15 21:41:00,SystemResetWarning,0836.5,5.01,000.00,028.3,027.1,000.0,036.5,030.0,23.8,0000.0,0009.33,0004.25,0003.76
2023-09-15 21:42:00,SystemResetWarning,0836.5,5.00,000.00,028.3,027.2,000.0,036.6,030.1,23.7,0000.0,0008.82,0004.26,0003.75
2023-09-15 21:43:00,SystemResetWarning,0836.5,5.00,000.00,028.4,027.3,000.0,036.6,030.1,24.2,0000.0,0008.74,0004.23,0003.73
2023-09-15 21:44:00,SystemResetWarning,0836.5,5.00,000.00,028.4,027.4,000.0,036.6,030.2,24.1,0000.0,0008.84,0004.24,0003.74
2023-09-15 21:45:00,SystemResetWarning,0836.5,4.99,000.00,028.4,027.1,000.0,036.6,030.1,24.0,0000.0,0008.90,0004.25,0003.73
2023-09-15 21:46:00,SystemResetWarning,0836.4,4.99,000.00,028.4,025.5,000.0,036.6,029.6,23.9,0000.0,0008.55,0004.24,0003.72
2023-09-15 21:47:00,SystemResetWarning,0836.4,5.01,000.00,028.3,024.8,000.0,036.5,029.6,23.8,0000.0,0008.57,0004.23,0003.70
2023-09-15 21:48:00,SystemResetWarning,0836.4,5.01,000.00,028.2,024.9,000.0,036.5,029.5,24.1,0000.0,0008.64,0004.22,0003.69
2023-09-15 21:49:00,SystemResetWarning,0836.4,4.99,000.00,028.1,025.2,000.0,036.5,029.5,23.9,0000.0,0008.76,0004.25,0003.69
2023-09-15 21:50:00,SystemResetWarning,0836.4,4.99,000.00,028.1,025.5,000.0,036.5,029.6,23.8,0000.0,0008.89,0004.27,0003.70
2023-09-15 21:51:00,SystemResetWarning,0836.4,5.01,000.00,028.1,025.8,000.0,036.5,029.7,23.7,0000.0,0008.69,0004.28,0003.70
2023-09-15 21:52:00,SystemResetWarning,0836.4,5.01,000.00,028.1,026.1,000.0,036.5,029.7,23.8,0000.0,0008.74,0004.26,0003.69
2023-09-15 21:53:00,SystemResetWarning,0836.4,5.00,000.00,028.1,026.3,000.0,036.5,029.8,24.0,0000.0,0008.69,0004.24,0003.70
2023-09-15 21:54:00,SystemResetWarning,0836.4,5.00,000.00,028.2,026.5,000.0,036.5,029.8,24.0,0000.0,0008.31,0004.22,0003.69
2023-09-15 21:55:00,SystemResetWarning,0836.4,5.00,000.00,028.2,026.7,000.0,036.5,029.9,24.0,0000.0,0008.49,0004.19,0003.69
2023-09-15 21:56:00,SystemResetWarning,0836.4,5.00,000.00,028.2,026.8,000.0,036.5,029.9,24.0,0000.0,0008.36,0004.14,0003.68
2023-09-15 21:57:00,SystemResetWarning,0836.3,5.00,000.00,028.3,027.0,000.0,036.5,030.0,23.8,0000.0,0008.26,0004.11,0003.67
2023-09-15 21:58:00,SystemResetWarning,0836.3,5.00,000.00,028.3,027.1,000.0,036.5,030.0,24.1,0000.0,0008.29,0004.10,0003.67
2023-09-15 21:59:00,SystemResetWarning,0836.3,5.00,000.00,028.3,027.2,000.0,036.6,030.1,24.3,0000.0,0009.37,0004.11,0003.67
